Time,TemperatureF,DewpointF,PressureIn,WindDirection,WindDirectionDegrees,WindSpeedMPH,WindSpeedGustMPH,Humidity,HourlyPrecipIn,Conditions,Clouds,dailyrainin,SoftwareType,DateUTC
2013-09-17 00:06:00,81.1,75.7,0.00,ESE,112,3.8,4.3,80,0.00,,,-99.99,Homeseer,2013-09-17 04:06:00,
2013-09-17 00:16:00,81.1,75.7,0.00,ESE,112,5.8,8.1,80,0.00,,,-99.99,Homeseer,2013-09-17 04:16:00,
2013-09-17 00:26:00,81.0,73.8,0.00,South,180,4.9,5.4,74,0.00,,,-99.99,Homeseer,2013-09-17 04:26:00,
2013-09-17 00:36:00,81.0,73.8,0.00,SSE,157,4.5,4.5,74,0.00,,,-99.99,Homeseer,2013-09-17 04:36:00,
2013-09-17 00:46:00,81.0,73.8,0.00,South,180,4.5,6.5,74,0.00,,,-99.99,Homeseer,2013-09-17 04:46:00,
2013-09-17 00:56:00,81.0,75.0,0.00,SSE,157,4.3,7.6,78,0.00,,,-99.99,Homeseer,2013-09-17 04:56:00,
2013-09-17 01:06:00,81.0,75.0,0.00,ESE,112,6.0,6.0,78,0.00,,,-99.99,Homeseer,2013-09-17 05:06:00,
2013-09-17 01:16:00,81.0,75.0,0.00,SE,135,4.7,9.4,78,0.00,,,-99.99,Homeseer,2013-09-17 05:16:00,
2013-09-17 01:26:00,81.0,75.0,0.00,SSE,157,4.9,6.0,78,0.00,,,-99.99,Homeseer,2013-09-17 05:26:00,
2013-09-17 01:36:00,81.0,75.0,0.00,SSE,157,6.0,6.3,78,0.00,,,-99.99,Homeseer,2013-09-17 05:36:00,
2013-09-17 01:46:00,81.0,75.0,0.00,ESE,112,4.3,5.8,78,0.00,,,-99.99,Homeseer,2013-09-17 05:46:00,
2013-09-17 01:56:00,0.0,0.0,0.00,East,90,6.5,6.5,0,0.00,,,-99.99,Homeseer,2013-09-17 05:56:00,
2013-09-17 02:06:00,80.8,74.5,0.00,SE,135,3.1,3.1,77,0.00,,,-99.99,Homeseer,2013-09-17 06:06:00,
2013-09-17 02:17:00,80.8,74.5,0.00,ESE,112,4.0,7.4,77,0.00,,,-99.99,Homeseer,2013-09-17 06:17:00,
2013-09-17 02:26:00,80.8,74.5,0.00,ESE,112,5.6,5.8,77,0.00,,,-99.99,Homeseer,2013-09-17 06:26:00,
2013-09-17 02:37:00,80.8,74.5,0.00,SE,135,6.0,6.0,77,0.00,,,-99.99,Homeseer,2013-09-17 06:37:00,
2013-09-17 02:47:00,80.8,74.5,0.00,North,0,4.7,4.7,77,0.00,,,-99.99,Homeseer,2013-09-17 06:47:00,
2013-09-17 02:57:00,80.8,74.5,0.00,South,180,7.2,8.1,77,0.00,,,-99.99,Homeseer,2013-09-17 06:57:00,
2013-09-17 03:07:00,80.8,74.5,0.00,SSE,157,6.0,6.5,77,0.00,,,-99.99,Homeseer,2013-09-17 07:07:00,
2013-09-17 03:17:00,81.1,75.1,0.00,ESE,112,6.7,6.7,78,0.00,,,-99.99,Homeseer,2013-09-17 07:17:00,
2013-09-17 03:27:00,81.1,75.1,0.00,SE,135,2.9,4.3,78,0.00,,,-99.99,Homeseer,2013-09-17 07:27:00,
2013-09-17 03:37:00,81.1,75.1,0.00,ESE,112,5.4,5.4,78,0.00,,,-99.99,Homeseer,2013-09-17 07:37:00,
2013-09-17 03:47:00,81.1,75.1,0.00,ESE,112,4.5,4.9,78,0.00,,,-99.99,Homeseer,2013-09-17 07:47:00,
2013-09-17 03:57:00,81.3,75.6,0.00,SE,135,4.0,4.0,79,0.00,,,-99.99,Homeseer,2013-09-17 07:57:00,
2013-09-17 04:07:00,81.3,75.6,0.00,ESE,112,3.6,3.8,79,0.00,,,-99.99,Homeseer,2013-09-17 08:07:00,
2013-09-17 04:17:00,81.3,75.6,0.00,North,0,4.9,4.9,79,0.00,,,-99.99,Homeseer,2013-09-17 08:17:00,
2013-09-17 04:27:00,81.1,75.4,0.00,SSE,157,4.3,4.3,79,0.00,,,-99.99,Homeseer,2013-09-17 08:27:00,
2013-09-17 04:37:00,81.1,75.4,0.00,SSE,157,3.6,3.6,79,0.00,,,-99.99,Homeseer,2013-09-17 08:37:00,
2013-09-17 04:47:00,81.1,75.4,0.00,SE,135,3.4,4.0,79,0.00,,,-99.99,Homeseer,2013-09-17 08:47:00,
2013-09-17 04:57:00,81.1,75.4,0.00,SE,135,3.8,3.8,79,0.00,,,-99.99,Homeseer,2013-09-17 08:57:00,
2013-09-17 05:07:00,81.3,71.4,0.00,South,180,3.1,4.0,66,0.00,,,-99.99,Homeseer,2013-09-17 09:07:00,
2013-09-17 05:17:00,81.3,71.4,0.00,SSE,157,2.9,2.9,66,0.00,,,-99.99,Homeseer,2013-09-17 09:17:00,
2013-09-17 05:27:00,81.1,72.2,0.00,SSE,157,2.2,3.8,69,0.00,,,-99.99,Homeseer,2013-09-17 09:27:00,
2013-09-17 05:37:00,81.1,73.6,0.00,SSE,157,3.1,6.0,73,0.00,,,-99.99,Homeseer,2013-09-17 09:37:00,
2013-09-17 05:47:00,81.3,75.3,0.00,North,0,4.5,4.5,78,0.00,,,-99.99,Homeseer,2013-09-17 09:47:00,
2013-09-17 05:57:00,81.5,76.4,0.00,ESE,112,3.4,3.8,81,0.00,,,-99.99,Homeseer,2013-09-17 09:57:00,
2013-09-17 06:07:00,81.5,76.4,0.00,SSE,157,4.9,4.9,81,0.00,,,-99.99,Homeseer,2013-09-17 10:07:00,
2013-09-17 06:17:00,81.5,74.6,0.00,SSE,157,4.5,4.5,75,0.00,,,-99.99,Homeseer,2013-09-17 10:17:00,
2013-09-17 06:27:00,81.5,74.9,0.00,SE,135,0.0,0.0,76,0.00,,,-99.99,Homeseer,2013-09-17 10:27:00,
2013-09-17 06:37:00,81.5,74.9,0.00,ESE,112,1.6,0.0,76,0.00,,,-99.99,Homeseer,2013-09-17 10:37:00,
2013-09-17 06:47:00,81.3,75.3,0.00,SSE,157,2.7,3.4,78,0.00,,,-99.99,Homeseer,2013-09-17 10:47:00,
2013-09-17 06:57:00,81.3,75.3,0.00,North,0,4.0,4.0,78,0.00,,,-99.99,Homeseer,2013-09-17 10:57:00,
2013-09-17 07:07:00,81.3,75.3,0.00,ESE,112,3.1,3.8,78,0.00,,,-99.99,Homeseer,2013-09-17 11:07:00,
2013-09-17 07:17:00,81.3,75.3,0.00,ESE,112,3.6,3.6,78,0.00,,,-99.99,Homeseer,2013-09-17 11:17:00,
2013-09-17 07:27:00,81.3,75.3,0.00,SSE,157,2.7,3.8,78,0.00,,,-99.99,Homeseer,2013-09-17 11:27:00,
2013-09-17 07:37:00,81.3,75.3,0.00,SE,135,2.0,2.0,78,0.00,,,-99.99,Homeseer,2013-09-17 11:37:00,
2013-09-17 07:47:00,0.0,0.0,0.00,ESE,112,0.0,0.0,0,0.00,,,-99.99,Homeseer,2013-09-17 11:47:00,
2013-09-17 07:57:00,0.0,0.0,0.00,SE,135,0.0,0.0,0,0.00,,,-99.99,Homeseer,2013-09-17 11:57:00,
2013-09-17 08:07:00,0.0,0.0,0.00,North,0,1.3,3.4,0,0.00,,,-99.99,Homeseer,2013-09-17 12:07:00,
2013-09-17 08:17:00,0.0,0.0,0.00,South,180,2.9,4.7,0,0.00,,,-99.99,Homeseer,2013-09-17 12:17:00,
2013-09-17 08:27:00,0.0,0.0,0.00,SSE,157,2.5,2.5,0,0.00,,,-99.99,Homeseer,2013-09-17 12:27:00,
2013-09-17 08:37:00,0.0,0.0,0.00,North,0,2.9,3.6,0,0.00,,,-99.99,Homeseer,2013-09-17 12:37:00,
2013-09-17 08:47:00,0.0,0.0,0.00,South,180,2.0,2.0,0,0.00,,,-99.99,Homeseer,2013-09-17 12:47:00,
2013-09-17 08:57:00,0.0,0.0,0.00,ESE,112,3.4,3.4,0,0.00,,,-99.99,Homeseer,2013-09-17 12:57:00,
2013-09-17 09:07:00,0.0,0.0,0.00,WSW,247,2.5,4.0,0,0.00,,,-99.99,Homeseer,2013-09-17 13:07:00,
2013-09-17 09:17:00,0.0,0.0,0.00,SW,225,1.1,1.1,0,0.00,,,-99.99,Homeseer,2013-09-17 13:17:00,
2013-09-17 09:27:00,0.0,0.0,0.00,WNW,297,1.6,0.0,0,0.00,,,-99.99,Homeseer,2013-09-17 13:27:00,
2013-09-17 09:37:00,0.0,0.0,0.00,South,180,0.0,0.0,0,0.00,,,-99.99,Homeseer,2013-09-17 13:37:00,
2013-09-17 09:47:00,0.0,0.0,0.00,North,0,0.0,0.0,0,0.00,,,-99.99,Homeseer,2013-09-17 13:47:00,
2013-09-17 09:57:00,0.0,0.0,0.00,North,0,2.9,3.1,0,0.00,,,-99.99,Homeseer,2013-09-17 13:57:00,
2013-09-17 10:07:00,0.0,0.0,0.00,North,0,1.3,1.6,0,0.00,,,-99.99,Homeseer,2013-09-17 14:07:00,
2013-09-17 10:17:00,0.0,0.0,0.00,ENE,67,0.0,0.0,0,0.00,,,-99.99,Homeseer,2013-09-17 14:17:00,
2013-09-17 10:27:00,0.0,0.0,0.00,NNE,22,0.0,0.0,0,0.00,,,-99.99,Homeseer,2013-09-17 14:27:00,
2013-09-17 10:37:00,78.1,72.5,0.00,North,0,0.0,0.0,79,0.00,,,-99.99,Homeseer,2013-09-17 14:37:00,
2013-09-17 10:47:00,78.1,72.5,0.00,SE,135,0.0,0.0,79,0.00,,,-99.99,Homeseer,2013-09-17 14:47:00,
2013-09-17 10:57:00,78.1,72.5,0.00,East,90,0.0,0.0,79,0.00,,,-99.99,Homeseer,2013-09-17 14:57:00,
2013-09-17 11:07:00,78.1,72.5,0.00,East,90,0.0,0.0,79,0.00,,,-99.99,Homeseer,2013-09-17 15:07:00,
2013-09-17 11:17:00,78.1,72.5,0.00,South,180,1.1,0.0,79,0.00,,,-99.99,Homeseer,2013-09-17 15:17:00,
2013-09-17 11:27:00,78.1,72.5,0.00,South,180,2.0,3.1,79,0.00,,,-99.99,Homeseer,2013-09-17 15:27:00,
2013-09-17 11:37:00,0.0,0.0,0.00,ESE,112,2.9,2.9,0,0.00,,,-99.99,Homeseer,2013-09-17 15:37:00,
2013-09-17 11:47:00,0.0,0.0,0.00,ESE,112,2.9,4.0,0,0.00,,,-99.99,Homeseer,2013-09-17 15:47:00,
2013-09-17 11:57:00,0.0,0.0,0.00,East,90,4.0,4.0,0,0.00,,,-99.99,Homeseer,2013-09-17 15:57:00,
2013-09-17 12:07:00,0.0,0.0,0.00,ENE,67,3.1,3.6,0,0.00,,,-99.99,Homeseer,2013-09-17 16:07:00,
2013-09-17 12:17:00,0.0,0.0,0.00,East,90,4.5,4.9,0,0.00,,,-99.99,Homeseer,2013-09-17 16:17:00,
2013-09-17 12:27:00,0.0,0.0,0.00,ENE,67,5.6,6.0,0,0.00,,,-99.99,Homeseer,2013-09-17 16:27:00,
2013-09-17 12:37:00,0.0,0.0,0.00,ESE,112,4.0,6.0,0,0.00,,,-99.99,Homeseer,2013-09-17 16:37:00,
2013-09-17 12:47:00,0.0,0.0,0.00,ENE,67,5.6,5.6,0,0.00,,,-99.99,Homeseer,2013-09-17 16:47:00,
2013-09-17 12:57:00,0.0,0.0,0.00,North,0,4.0,4.3,0,0.00,,,-99.99,Homeseer,2013-09-17 16:57:00,
2013-09-17 13:07:00,0.0,0.0,0.00,East,90,3.1,3.1,0,0.00,,,-99.99,Homeseer,2013-09-17 17:07:00,
2013-09-17 13:17:00,0.0,0.0,0.00,ENE,67,4.5,4.5,0,0.00,,,-99.99,Homeseer,2013-09-17 17:17:00,
2013-09-17 13:27:00,0.0,0.0,0.00,ESE,112,2.9,2.9,0,0.00,,,-99.99,Homeseer,2013-09-17 17:27:00,
2013-09-17 13:37:00,0.0,0.0,0.00,ESE,112,6.0,7.2,0,0.00,,,-99.99,Homeseer,2013-09-17 17:37:00,
2013-09-17 13:47:00,82.2,70.4,0.00,NNE,22,4.7,6.5,61,0.00,,,-99.99,Homeseer,2013-09-17 17:47:00,
2013-09-17 13:57:00,82.2,70.4,0.00,ESE,112,5.4,5.4,61,0.00,,,-99.99,Homeseer,2013-09-17 17:57:00,
2013-09-17 14:07:00,82.2,70.4,0.00,ENE,67,4.3,4.3,61,0.00,,,-99.99,Homeseer,2013-09-17 18:07:00,
2013-09-17 14:17:00,82.2,70.4,0.00,ESE,112,3.6,3.6,61,0.00,,,-99.99,Homeseer,2013-09-17 18:17:00,
2013-09-17 14:27:00,82.2,70.4,0.00,ENE,67,2.9,3.1,61,0.00,,,-99.99,Homeseer,2013-09-17 18:27:00,
2013-09-17 14:37:00,82.2,70.4,0.00,NNE,22,3.1,4.7,61,0.00,,,-99.99,Homeseer,2013-09-17 18:37:00,
2013-09-17 14:47:00,0.0,0.0,0.00,ESE,112,3.6,3.6,0,0.00,,,-99.99,Homeseer,2013-09-17 18:47:00,
2013-09-17 14:57:00,0.0,0.0,0.00,NNE,22,3.8,3.8,0,0.00,,,-99.99,Homeseer,2013-09-17 18:57:00,
2013-09-17 15:07:00,80.8,74.8,0.00,East,90,4.7,4.7,78,0.00,,,-99.99,Homeseer,2013-09-17 19:07:00,
2013-09-17 15:17:00,80.8,74.8,0.00,East,90,5.6,5.6,78,0.00,,,-99.99,Homeseer,2013-09-17 19:17:00,
2013-09-17 15:27:00,80.8,74.8,0.00,East,90,7.6,7.6,78,0.00,,,-99.99,Homeseer,2013-09-17 19:27:00,
2013-09-17 15:37:00,80.8,74.8,0.00,East,90,4.5,4.5,78,0.00,,,-99.99,Homeseer,2013-09-17 19:37:00,
2013-09-17 15:47:00,80.8,74.8,0.00,East,90,6.7,6.7,78,0.00,,,-99.99,Homeseer,2013-09-17 19:47:00,
2013-09-17 15:57:00,80.8,74.8,0.00,North,0,3.1,3.1,78,0.00,,,-99.99,Homeseer,2013-09-17 19:57:00,
2013-09-17 16:07:00,0.0,0.0,0.00,ESE,112,5.6,5.8,0,0.00,,,-99.99,Homeseer,2013-09-17 20:07:00,
2013-09-17 16:17:00,80.2,73.6,0.00,SE,135,4.3,4.9,76,0.00,,,-99.99,Homeseer,2013-09-17 20:17:00,
2013-09-17 16:27:00,80.2,73.6,0.00,ENE,67,8.5,8.5,76,0.00,,,-99.99,Homeseer,2013-09-17 20:27:00,
2013-09-17 16:37:00,80.4,69.9,0.00,SSE,157,4.0,6.3,64,0.00,,,-99.99,Homeseer,2013-09-17 20:37:00,
2013-09-17 16:47:00,80.4,69.9,0.00,ESE,112,5.4,5.4,64,0.00,,,-99.99,Homeseer,2013-09-17 20:47:00,
2013-09-17 16:57:00,80.4,69.9,0.00,ESE,112,4.3,4.3,64,0.00,,,-99.99,Homeseer,2013-09-17 20:57:00,
2013-09-17 17:07:00,80.4,69.9,0.00,ENE,67,5.4,6.3,64,0.00,,,-99.99,Homeseer,2013-09-17 21:07:00,
2013-09-17 17:17:00,80.4,69.9,0.00,ENE,67,5.4,8.7,64,0.00,,,-99.99,Homeseer,2013-09-17 21:17:00,
2013-09-17 17:27:00,80.4,69.9,0.00,East,90,4.7,4.9,64,0.00,,,-99.99,Homeseer,2013-09-17 21:27:00,
2013-09-17 17:37:00,0.0,0.0,0.00,ESE,112,3.8,3.8,0,0.00,,,-99.99,Homeseer,2013-09-17 21:37:00,
2013-09-17 17:47:00,0.0,0.0,0.00,ENE,67,4.9,0.0,0,0.00,,,-99.99,Homeseer,2013-09-17 21:47:00,
2013-09-17 17:57:00,0.0,0.0,0.00,NNE,22,3.4,3.4,0,0.00,,,-99.99,Homeseer,2013-09-17 21:57:00,
2013-09-17 18:07:00,79.9,73.7,0.00,East,90,5.6,5.6,77,0.00,,,-99.99,Homeseer,2013-09-17 22:07:00,
2013-09-17 18:17:00,79.9,73.7,0.00,ENE,67,5.4,6.5,77,0.00,,,-99.99,Homeseer,2013-09-17 22:17:00,
2013-09-17 18:27:00,80.2,73.0,0.00,ESE,112,3.6,4.0,74,0.00,,,-99.99,Homeseer,2013-09-17 22:27:00,
2013-09-17 18:37:00,80.2,73.0,0.00,ESE,112,5.6,5.6,74,0.00,,,-99.99,Homeseer,2013-09-17 22:37:00,
2013-09-17 18:47:00,80.2,74.8,0.00,South,180,5.4,6.5,80,0.00,,,-99.99,Homeseer,2013-09-17 22:47:00,
2013-09-17 18:57:00,80.2,75.1,0.00,ESE,112,4.7,6.9,81,0.00,,,-99.99,Homeseer,2013-09-17 22:57:00,
2013-09-17 19:07:00,80.2,75.7,0.00,ESE,112,3.6,4.0,83,0.00,,,-99.99,Homeseer,2013-09-17 23:07:00,
2013-09-17 19:17:00,80.2,75.4,0.00,East,90,4.5,6.3,82,0.00,,,-99.99,Homeseer,2013-09-17 23:17:00,
2013-09-17 19:27:00,80.4,73.2,0.00,ESE,112,4.9,6.5,74,0.00,,,-99.99,Homeseer,2013-09-17 23:27:00,
2013-09-17 19:37:00,80.4,73.5,0.00,SSE,157,2.5,3.4,75,0.00,,,-99.99,Homeseer,2013-09-17 23:37:00,
2013-09-17 19:47:00,80.6,72.8,0.00,ESE,112,4.5,4.5,72,0.00,,,-99.99,Homeseer,2013-09-17 23:47:00,
2013-09-17 19:57:00,81.0,71.5,0.00,ESE,112,4.3,7.6,67,0.00,,,-99.99,Homeseer,2013-09-17 23:57:00,
2013-09-17 20:07:00,81.0,72.5,0.00,ESE,112,5.8,5.8,70,0.00,,,-99.99,Homeseer,2013-09-18 00:07:00,
2013-09-17 20:17:00,81.1,74.2,0.00,ESE,112,4.0,6.7,75,0.00,,,-99.99,Homeseer,2013-09-18 00:17:00,
2013-09-17 20:27:00,81.1,74.8,0.00,ESE,112,4.7,6.5,77,0.00,,,-99.99,Homeseer,2013-09-18 00:27:00,
2013-09-17 20:37:00,81.1,75.1,0.00,ESE,112,6.7,7.2,78,0.00,,,-99.99,Homeseer,2013-09-18 00:37:00,
2013-09-17 20:47:00,81.0,74.4,0.00,ESE,112,4.5,6.3,76,0.00,,,-99.99,Homeseer,2013-09-18 00:47:00,
2013-09-17 20:57:00,81.3,73.7,0.00,ESE,112,4.5,4.5,73,0.00,,,-99.99,Homeseer,2013-09-18 00:57:00,
2013-09-17 21:07:00,81.3,75.0,0.00,East,90,4.7,4.7,77,0.00,,,-99.99,Homeseer,2013-09-18 01:07:00,
2013-09-17 21:27:00,81.3,74.7,0.00,SE,135,3.8,3.8,76,0.00,,,-99.99,Homeseer,2013-09-18 01:27:00,
2013-09-17 21:37:00,81.3,74.7,0.00,SE,135,3.8,3.8,76,0.00,,,-99.99,Homeseer,2013-09-18 01:37:00,
2013-09-17 21:47:00,81.3,74.4,0.00,ESE,112,4.5,5.8,75,0.00,,,-99.99,Homeseer,2013-09-18 01:47:00,
2013-09-17 21:57:00,81.3,73.7,0.00,East,90,4.0,4.0,73,0.00,,,-99.99,Homeseer,2013-09-18 01:57:00,
2013-09-17 22:07:00,81.3,74.1,0.00,North,0,4.9,4.9,74,0.00,,,-99.99,Homeseer,2013-09-18 02:07:00,
2013-09-17 22:17:00,81.3,74.1,0.00,ESE,112,5.8,8.5,74,0.00,,,-99.99,Homeseer,2013-09-18 02:17:00,
2013-09-17 22:27:00,81.5,74.6,0.00,WSW,247,5.4,5.4,75,0.00,,,-99.99,Homeseer,2013-09-18 02:27:00,
2013-09-17 22:37:00,81.5,73.9,0.00,North,0,4.5,4.5,73,0.00,,,-99.99,Homeseer,2013-09-18 02:37:00,
2013-09-17 22:47:00,81.5,74.3,0.00,South,180,4.7,4.7,74,0.00,,,-99.99,Homeseer,2013-09-18 02:47:00,
2013-09-17 22:57:00,81.5,73.9,0.00,SE,135,3.8,3.8,73,0.00,,,-99.99,Homeseer,2013-09-18 02:57:00,
2013-09-17 23:07:00,81.5,73.0,0.00,ESE,112,2.9,2.9,70,0.00,,,-99.99,Homeseer,2013-09-18 03:07:00,
2013-09-17 23:17:00,81.5,73.3,0.00,ESE,112,3.8,4.0,71,0.00,,,-99.99,Homeseer,2013-09-18 03:17:00,
2013-09-17 23:27:00,81.5,73.3,0.00,SSE,157,4.5,4.5,71,0.00,,,-99.99,Homeseer,2013-09-18 03:27:00,
2013-09-17 23:37:00,81.3,73.1,0.00,SE,135,3.4,4.9,71,0.00,,,-99.99,Homeseer,2013-09-18 03:37:00,
2013-09-17 23:47:00,81.3,72.4,0.00,ESE,112,2.2,2.2,69,0.00,,,-99.99,Homeseer,2013-09-18 03:47:00,
2013-09-17 23:57:00,81.3,73.4,0.00,SSE,157,3.8,3.8,72,0.00,,,-99.99,Homeseer,2013-09-18 03:57:00,